Miscellaneous Local Product
Issued by NWS Hastings, NE

Home | Current Version | Previous Version | Text Only | Print | Product List | Glossary On
Versions: 1 2 3 4 5 6 7 8 9 10 11 12 13 14 15 16 17 18 19 20 21 22 23 24 25 26 27 28 29 30 31 32 33 34 35 36 37 38 39 40 41 42 43 44 45 46 47 48 49 50
000
AXUS43 KGID 230010
MISGRI

GID CWA HOURLY WEATHER ROUNDUP
NATIONAL WEATHER SERVICE HASTINGS NE
700 PM CDT MON SEP 22 2014

NOTE: "FAIR" INDICATES FEW OR NO CLOUDS BELOW 12,000 FEET WITH NO
SIGNIFICANT WEATHER AND/OR OBSTRUCTIONS TO VISIBILITY.

...SOUTH CENTRAL NEBRASKA...

CITY           SKY/WX    TMP DP  RH WIND       PRES   REMARKS
GRAND ISLAND   CLOUDY    69  48  47 S9        30.16S
HASTINGS       CLOUDY    69  46  43 SE10      30.15F
KEARNEY        CLOUDY    68  46  45 SE9       30.15F
ORD            CLOUDY    68  50  52 S9        30.13R
YORK           MOCLDY    66  50  55 SE7       30.16S
AURORA         CLOUDY    69  47  44 S6        30.16S
LEXINGTON      LGT RAIN  63  56  78 E9        30.13F
HOLDREGE       CLOUDY    68  48  48 SE9       30.13F
HEBRON         MOCLDY    67  48  50 SE5       30.17F

...NEBRASKA PANHANDLE...

CITY           SKY/WX    TMP DP  RH WIND       PRES   REMARKS
CHADRON        CLOUDY    68  56  65 SW5       29.99S
ALLIANCE       MOCLDY    65  57  75 SE10      30.05F
SCOTTSBLUFF    PTCLDY    69  58  67 SE7       30.04F
SIDNEY         MOCLDY    69  53  56 S18G24    30.08R

...WESTERN AND NORTH CENTRAL NEBRASKA...

CITY           SKY/WX    TMP DP  RH WIND       PRES   REMARKS
VALENTINE      CLOUDY    64  52  64 S21       30.07F
AINSWORTH      DRIZZLE   58  53  83 S18G24    30.09F
ONEILL         CLOUDY    70  52  53 S9        30.12F
BROKEN BOW     LGT RAIN  61  55  81 S5        30.13F
IMPERIAL       MOCLDY    71  49  45 SE18      30.08S
NORTH PLATTE   LGT RAIN  58  55  90 SE10      30.11F
MCCOOK         CLOUDY    74  45  35 SE13      30.09F

...EASTERN NEBRASKA...

CITY           SKY/WX    TMP DP  RH WIND       PRES   REMARKS
NORFOLK        MOCLDY    69  49  48 SE9       30.14F
SO SIOUX CITY  PTCLDY    68  51  54 S6        30.17F
TEKAMAH        PTCLDY    68  51  54 SE7       30.17F
COLUMBUS       CLOUDY    68  48  49 SE5       30.17S
ALBION         CLOUDY    67  52  58 SE6       30.15S
OMAHA EPPLEY   MOCLDY    70  50  49 SE8       30.18F
OFFUTT AFB     CLEAR     67  55  64 SE6       30.18F
MILLARD        PTCLDY    70  50  50 SE5       30.18S
LINCOLN        MOCLDY    69  49  48 S8        30.17F
NEBRASKA CITY    N/A     67  41  38 SE3       30.19F
BEATRICE       MOCLDY    70  47  44 SE5       30.17F
FALLS CITY     PTCLDY    68  51  54 SW5       30.19F

...NORTHERN KANSAS...

CITY           SKY/WX    TMP DP  RH WIND       PRES   REMARKS
GOODLAND       CLOUDY    70  53  54 S22G32    30.09R
HILL CITY      CLOUDY    74  45  35 SE12      30.12F
NORTON         PTCLDY    73  39  29 SE14G21   30.10
PHILLIPSBURG   CLEAR     73  45  35 SE13      30.12F
SMITH CENTER   CLEAR     72  45  37 SE9       30.16S
BELOIT         CLEAR     72  48  43 SE7       30.15S
HAYS           MOCLDY    75  45  33 SE13      30.15S
RUSSELL        MOCLDY    72  47  40 SE8       30.15F
CONCORDIA      MOCLDY    67  52  58 S6        30.17F
SALINA         PTCLDY    71  51  49 SE7       30.17F
TOPEKA         PTCLDY    69  53  56 SE5       30.20F



USA.gov is the U.S. government's official web portal to all federal, state and local government web resources and services.